| time (UTC) | temp F | wind direction | speed MPH | gust MPH | rain 1hr in | rain 24hr in | rain mn in | humidity % | barometer mb |
| 20260504001401 | 63 | 262 | 1.0 | 2.0 | 0.00 | 0.09 | 0.09 | 68 | 1010.9 |
| 20260504000848 | 63 | 276 | 0.0 | 3.0 | 0.00 | 0.09 | 0.09 | 69 | 1010.9 |
| 20260504000357 | 63 | 258 | 0.0 | 3.0 | 0.00 | 0.09 | 0.09 | 69 | 1011.0 |
| 20260503235925 | 63 | 278 | 0.0 | 3.0 | 0.00 | 0.09 | 0.09 | 69 | 1011.0 |
| 20260503235350 | 63 | 259 | 1.0 | 3.0 | 0.00 | 0.09 | 0.09 | 68 | 1011.0 |
| 20260503234857 | 64 | 207 | 1.0 | 3.0 | 0.00 | 0.09 | 0.09 | 69 | 1010.9 |
| 20260503234404 | 64 | 226 | 0.0 | 1.0 | 0.00 | 0.09 | 0.09 | 70 | 1010.8 |
| 20260503233850 | 63 | 333 | 0.0 | 3.0 | 0.00 | 0.09 | 0.09 | 71 | 1010.9 |
| 20260503233358 | 63 | 297 | 0.0 | 3.0 | 0.00 | 0.09 | 0.09 | 71 | 1011.0 |
| 20260503232927 | 63 | 338 | 0.0 | 1.0 | 0.00 | 0.09 | 0.09 | 71 | 1011.0 |
| 20260503232351 | 63 | 317 | 0.0 | 1.0 | 0.00 | 0.09 | 0.09 | 71 | 1011.0 |
| 20260503231900 | 63 | 298 | 0.0 | 2.0 | 0.00 | 0.09 | 0.09 | 72 | 1011.1 |
| 20260503231347 | 63 | 321 | 1.0 | 2.0 | 0.00 | 0.09 | 0.09 | 72 | 1011.2 |
| 20260503230855 | 63 | 332 | 0.0 | 2.0 | 0.00 | 0.09 | 0.09 | 73 | 1011.2 |
| 20260503230346 | 63 | 307 | 1.0 | 4.0 | 0.00 | 0.09 | 0.09 | 73 | 1011.2 |
| 20260503225855 | 62 | 296 | 0.0 | 4.0 | 0.00 | 0.09 | 0.09 | 74 | 1011.2 |
| 20260503225402 | 62 | 277 | 0.0 | 3.0 | 0.00 | 0.09 | 0.09 | 75 | 1011.3 |
| 20260503224849 | 62 | 349 | 0.0 | 3.0 | 0.00 | 0.09 | 0.09 | 76 | 1011.3 |
| 20260503224357 | 62 | 304 | 0.0 | 4.0 | 0.00 | 0.09 | 0.09 | 76 | 1011.4 |
| 20260503223925 | 62 | 304 | 0.0 | 4.0 | 0.00 | 0.09 | 0.09 | 76 | 1011.4 |
| 20260503223352 | 62 | 302 | 0.0 | 3.0 | 0.00 | 0.09 | 0.09 | 77 | 1011.5 |
| 20260503222918 | 62 | 290 | 0.0 | 3.0 | 0.00 | 0.09 | 0.09 | 75 | 1011.4 |
| 20260503222347 | 62 | 283 | 0.0 | 2.0 | 0.00 | 0.09 | 0.09 | 77 | 1011.5 |
| 20260503221855 | 62 | 283 | 0.0 | 2.0 | 0.00 | 0.09 | 0.09 | 75 | 1011.5 |
| 20260503221359 | 63 | 274 | 1.0 | 2.0 | 0.00 | 0.09 | 0.09 | 74 | 1011.6 |
| 20260503220847 | 63 | 232 | 0.0 | 2.0 | 0.00 | 0.09 | 0.09 | 75 | 1011.6 |
| 20260503220416 | 63 | 59 | 0.0 | 3.0 | 0.00 | 0.09 | 0.09 | 75 | 1011.7 |
| 20260503215847 | 63 | 116 | 1.0 | 3.0 | 0.00 | 0.09 | 0.09 | 75 | 1011.7 |
| 20260503215356 | 63 | 149 | 0.0 | 2.0 | 0.00 | 0.09 | 0.09 | 77 | 1011.8 |
| 20260503214902 | 63 | 19 | 0.0 | 2.0 | 0.00 | 0.09 | 0.09 | 76 | 1011.7 |
| 20260503214411 | 63 | 84 | 0.0 | 2.0 | 0.00 | 0.09 | 0.09 | 76 | 1011.8 |
| 20260503213857 | 63 | 30 | 0.0 | 0.0 | 0.00 | 0.09 | 0.09 | 77 | 1011.8 |
| 20260503213404 | 63 | 68 | 0.0 | 0.0 | 0.00 | 0.09 | 0.09 | 78 | 1011.8 |
| 20260503212349 | 63 | 78 | 0.0 | 0.0 | 0.00 | 0.09 | 0.09 | 80 | 1011.9 |
| 20260503211856 | 63 | 78 | 0.0 | 3.0 | 0.00 | 0.09 | 0.09 | 81 | 1012.0 |
| 20260503211403 | 62 | 78 | 0.0 | 3.0 | 0.00 | 0.09 | 0.09 | 81 | 1012.1 |
| 20260503210852 | 62 | 86 | 0.0 | 2.0 | 0.00 | 0.09 | 0.09 | 81 | 1012.0 |
| 20260503210400 | 62 | 105 | 0.0 | 2.0 | 0.00 | 0.09 | 0.09 | 82 | 1012.1 |
| 20260503205854 | 61 | 87 | 0.0 | 2.0 | 0.00 | 0.09 | 0.09 | 82 | 1012.1 |
| 20260503205401 | 61 | 82 | 0.0 | 2.0 | 0.00 | 0.09 | 0.09 | 83 | 1012.1 |
| 20260503204851 | 61 | 65 | 1.0 | 2.0 | 0.00 | 0.09 | 0.09 | 82 | 1012.1 |
| 20260503204358 | 61 | 105 | 0.0 | 2.0 | 0.00 | 0.09 | 0.09 | 82 | 1012.1 |
| 20260503203845 | 61 | 85 | 0.0 | 0.0 | 0.00 | 0.09 | 0.09 | 83 | 1012.1 |
| 20260503203349 | 61 | 93 | 0.0 | 1.0 | 0.00 | 0.09 | 0.09 | 83 | 1012.1 |
| 20260503202856 | 61 | 108 | 0.0 | 2.0 | 0.00 | 0.09 | 0.09 | 83 | 1012.1 |
| 20260503202403 | 61 | 63 | 1.0 | 2.0 | 0.00 | 0.09 | 0.09 | 83 | 1012.2 |
| 20260503201849 | 61 | 128 | 0.0 | 0.0 | 0.00 | 0.09 | 0.09 | 84 | 1012.2 |
| 20260503201359 | 61 | 129 | 0.0 | 0.0 | 0.00 | 0.09 | 0.09 | 84 | 1012.2 |
| 20260503200846 | 61 | 153 | 0.0 | 0.0 | 0.00 | 0.09 | 0.09 | 85 | 1012.3 |
| 20260503200356 | 61 | 226 | 0.0 | 2.0 | 0.00 | 0.09 | 0.09 | 86 | 1012.4 |
| 20260503195904 | 61 | 214 | 0.0 | 2.0 | 0.00 | 0.09 | 0.09 | 87 | 1012.4 |
| 20260503195354 | 61 | 96 | 0.0 | 4.0 | 0.00 | 0.09 | 0.09 | 86 | 1012.4 |
| 20260503194858 | 60 | 158 | 0.0 | 4.0 | 0.00 | 0.09 | 0.09 | 88 | 1012.5 |
| 20260503194347 | 60 | 93 | 1.0 | 4.0 | 0.00 | 0.09 | 0.09 | 87 | 1012.4 |
| 20260503193854 | 60 | 87 | 0.0 | 4.0 | 0.00 | 0.09 | 0.09 | 89 | 1012.4 |
| 20260503193422 | 60 | 155 | 2.0 | 4.0 | 0.00 | 0.09 | 0.09 | 90 | 1012.4 |
| 20260503192848 | 60 | 121 | 1.0 | 5.0 | 0.01 | 0.09 | 0.09 | 92 | 1012.5 |
| 20260503192357 | 59 | 113 | 0.0 | 5.0 | 0.01 | 0.09 | 0.09 | 93 | 1012.6 |
| 20260503191400 | 59 | 81 | 1.0 | 3.0 | 0.02 | 0.09 | 0.09 | 94 | 1012.7 |
| 20260503190852 | 58 | 139 | 1.0 | 3.0 | 0.03 | 0.09 | 0.09 | 94 | 1012.7 |
| 20260503190358 | 58 | 151 | 1.0 | 3.0 | 0.04 | 0.09 | 0.09 | 94 | 1012.8 |
| 20260503185846 | 58 | 84 | 0.0 | 0.0 | 0.04 | 0.09 | 0.09 | 95 | 1012.9 |
| 20260503185354 | 58 | 153 | 0.0 | 0.0 | 0.04 | 0.09 | 0.09 | 95 | 1013.0 |
| 20260503184903 | 57 | 158 | 0.0 | 0.0 | 0.05 | 0.09 | 0.09 | 95 | 1013.0 |
| 20260503184350 | 57 | 158 | 0.0 | 0.0 | 0.05 | 0.09 | 0.09 | 95 | 1013.0 |
| 20260503183859 | 57 | 155 | 0.0 | 0.0 | 0.05 | 0.09 | 0.09 | 95 | 1013.1 |
| 20260503183407 | 57 | 157 | 0.0 | 0.0 | 0.06 | 0.09 | 0.09 | 94 | 1013.1 |
| 20260503182912 | 57 | 238 | 0.0 | 1.0 | 0.05 | 0.08 | 0.08 | 94 | 1013.2 |
| 20260503182358 | 57 | 209 | 0.0 | 2.0 | 0.06 | 0.08 | 0.08 | 94 | 1013.2 |
| 20260503181847 | 57 | 155 | 1.0 | 2.0 | 0.06 | 0.08 | 0.08 | 94 | 1013.3 |
| 20260503181353 | 57 | 256 | 0.0 | 2.0 | 0.05 | 0.07 | 0.07 | 94 | 1013.3 |
| 20260503180904 | 57 | 146 | 1.0 | 2.0 | 0.05 | 0.06 | 0.06 | 94 | 1013.3 |
| 20260503180352 | 57 | 170 | 0.0 | 0.0 | 0.04 | 0.05 | 0.05 | 95 | 1013.3 |
| 20260503175859 | 57 | 170 | 0.0 | 0.0 | 0.04 | 0.05 | 0.05 | 95 | 1013.3 |
| 20260503175346 | 57 | 170 | 0.0 | 0.0 | 0.03 | 0.04 | 0.04 | 95 | 1013.3 |
| 20260503174853 | 57 | 170 | 0.0 | 0.0 | 0.03 | 0.04 | 0.04 | 94 | 1013.2 |
| 20260503174401 | 57 | 48 | 0.0 | 0.0 | 0.03 | 0.04 | 0.04 | 94 | 1013.2 |
| 20260503173910 | 57 | 38 | 0.0 | 0.0 | 0.04 | 0.04 | 0.04 | 94 | 1013.1 |
| 20260503173356 | 57 | 38 | 0.0 | 0.0 | 0.03 | 0.03 | 0.03 | 94 | 1013.0 |
| 20260503172903 | 57 | 38 | 0.0 | 0.0 | 0.03 | 0.03 | 0.03 | 95 | 1013.0 |
| 20260503172350 | 56 | 38 | 0.0 | 0.0 | 0.02 | 0.02 | 0.02 | 95 | 1013.0 |
| 20260503171857 | 56 | 38 | 0.0 | 0.0 | 0.02 | 0.02 | 0.02 | 94 | 1012.9 |
| 20260503171346 | 56 | 38 | 0.0 | 0.0 | 0.02 | 0.02 | 0.02 | 94 | 1012.7 |
| 20260503170856 | 56 | 143 | 0.0 | 0.0 | 0.01 | 0.01 | 0.01 | 94 | 1012.7 |
| 20260503170401 | 56 | 161 | 0.0 | 0.0 | 0.01 | 0.01 | 0.01 | 94 | 1012.8 |
| 20260503150918 | 57 | 148 | 0.0 | 3.0 | 0.00 | 0.00 | 0.00 | 94 | 1012.1 |
| 20260503150349 | 57 | 133 | 1.0 | 2.0 | 0.00 | 0.00 | 0.00 | 94 | 1012.0 |
| 20260503131353 | 57 | 258 | 0.0 | 0.0 | 0.00 | 0.00 | 0.00 | 91 | 1011.3 |
| 20260503130900 | 57 | 258 | 0.0 | 0.0 | 0.00 | 0.00 | 0.00 | 91 | 1011.3 |
| 20260503130347 | 57 | 241 | 0.0 | 0.0 | 0.00 | 0.00 | 0.00 | 91 | 1011.2 |
| 20260503110358 | 57 | 150 | 0.0 | 0.0 | 0.00 | 0.00 | 0.00 | 90 | 1010.8 |
| 20260503090400 | 58 | 236 | 0.0 | 2.0 | 0.00 | 0.00 | 0.00 | 91 | 1011.5 |
| 20260503081411 | 58 | 155 | 0.0 | 0.0 | 0.00 | 0.00 | 0.00 | 91 | 1011.4 |
| 20260503080855 | 58 | 154 | 0.0 | 0.0 | 0.00 | 0.00 | 0.00 | 91 | 1011.5 |
| 20260503080401 | 58 | 155 | 0.0 | 0.0 | 0.00 | 0.00 | 0.00 | 91 | 1011.4 |
| 20260503072848 | 57 | 230 | 0.0 | 0.0 | 0.00 | 0.00 | 0.00 | 91 | 1011.4 |
| 20260503072359 | 57 | 230 | 0.0 | 0.0 | 0.00 | 0.00 | 0.00 | 90 | 1011.3 |
| 20260503071847 | 57 | 144 | 0.0 | 0.0 | 0.00 | 0.00 | 0.00 | 90 | 1011.1 |
| 20260503071354 | 57 | 144 | 0.0 | 0.0 | 0.00 | 0.00 | 0.00 | 90 | 1011.1 |
| 20260503070904 | 57 | 144 | 0.0 | 0.0 | 0.00 | 0.00 | 0.00 | 90 | 1011.0 |
| 20260503070352 | 58 | 143 | 0.0 | 0.0 | 0.00 | 0.00 | 0.00 | 90 | 1011.0 |
| 20260503054854 | 59 | 144 | 0.0 | 0.0 | 0.00 | 0.00 | 0.00 | 85 | 1011.0 |
| 20260503054359 | 60 | 144 | 0.0 | 0.0 | 0.00 | 0.00 | 0.00 | 85 | 1011.2 |
| 20260503053906 | 60 | 144 | 0.0 | 0.0 | 0.00 | 0.00 | 0.00 | 85 | 1011.3 |
| 20260503053400 | 60 | 144 | 0.0 | 0.0 | 0.00 | 0.00 | 0.00 | 85 | 1011.3 |
| 20260503052849 | 60 | 143 | 0.0 | 0.0 | 0.00 | 0.00 | 0.00 | 84 | 1011.3 |
| 20260503052356 | 60 | 143 | 0.0 | 0.0 | 0.00 | 0.00 | 0.00 | 84 | 1011.4 |
| 20260503051919 | 61 | 143 | 0.0 | 0.0 | 0.00 | 0.00 | 0.00 | 84 | 1011.4 |
| 20260503051354 | 61 | 143 | 0.0 | 0.0 | 0.00 | 0.00 | 0.00 | 84 | 1011.3 |
| 20260503050901 | 61 | 143 | 0.0 | 1.0 | 0.00 | 0.00 | 0.00 | 84 | 1011.2 |
| 20260503050349 | 61 | 143 | 0.0 | 1.0 | 0.00 | 0.00 | 0.00 | 84 | 1011.1 |
| 20260503045855 | 61 | 82 | 0.0 | 0.0 | 0.00 | 0.00 | 0.00 | 84 | 1011.0 |
| 20260503045404 | 61 | 78 | 0.0 | 0.0 | 0.00 | 0.00 | 0.00 | 83 | 1011.0 |
| 20260503044913 | 61 | 78 | 0.0 | 0.0 | 0.00 | 0.00 | 0.00 | 83 | 1011.0 |
| 20260503044400 | 61 | 78 | 0.0 | 0.0 | 0.00 | 0.00 | 0.00 | 83 | 1011.0 |
| 20260503043846 | 61 | 78 | 0.0 | 0.0 | 0.00 | 0.00 | 0.00 | 83 | 1010.9 |
| 20260503043351 | 61 | 78 | 0.0 | 0.0 | 0.00 | 0.00 | 0.00 | 83 | 1010.8 |
| 20260503042917 | 61 | 78 | 0.0 | 0.0 | 0.00 | 0.00 | 0.00 | 83 | 1010.7 |
| 20260503042359 | 61 | 78 | 0.0 | 1.0 | 0.00 | 0.00 | 0.00 | 82 | 1010.7 |
| 20260503041851 | 61 | 78 | 0.0 | 1.0 | 0.00 | 0.00 | 0.00 | 83 | 1010.6 |
| 20260503041416 | 61 | 250 | 0.0 | 0.0 | 0.00 | 0.00 | 0.00 | 82 | 1010.6 |
| 20260503040357 | 62 | 250 | 0.0 | 0.0 | 0.00 | 0.00 | 0.00 | 81 | 1010.6 |
| 20260503035903 | 62 | 250 | 0.0 | 0.0 | 0.00 | 0.00 | 0.00 | 81 | 1010.5 |
| 20260503035413 | 62 | 250 | 0.0 | 0.0 | 0.00 | 0.00 | 0.00 | 81 | 1010.3 |
| 20260503034900 | 63 | 250 | 0.0 | 0.0 | 0.00 | 0.00 | 0.00 | 80 | 1010.2 |
| 20260503034427 | 63 | 250 | 0.0 | 0.0 | 0.00 | 0.00 | 0.00 | 80 | 1010.1 |
| 20260503033858 | 63 | 250 | 0.0 | 1.0 | 0.00 | 0.00 | 0.00 | 79 | 1010.0 |
| 20260503033346 | 63 | 250 | 0.0 | 1.0 | 0.00 | 0.00 | 0.00 | 79 | 1009.9 |
| 20260503032853 | 63 | 250 | 0.0 | 1.0 | 0.00 | 0.00 | 0.00 | 79 | 1009.9 |
| 20260503032401 | 63 | 249 | 0.0 | 1.0 | 0.00 | 0.00 | 0.00 | 79 | 1009.8 |
| 20260503031849 | 64 | 254 | 0.0 | 1.0 | 0.00 | 0.00 | 0.00 | 78 | 1009.8 |
| 20260503031357 | 64 | 242 | 0.0 | 2.0 | 0.00 | 0.00 | 0.00 | 78 | 1009.7 |
| 20260503030848 | 64 | 266 | 0.0 | 2.0 | 0.00 | 0.00 | 0.00 | 77 | 1009.5 |
| 20260503030355 | 64 | 149 | 0.0 | 2.0 | 0.00 | 0.00 | 0.00 | 77 | 1009.5 |
| 20260503025903 | 65 | 249 | 0.0 | 1.0 | 0.00 | 0.00 | 0.00 | 77 | 1009.4 |
| 20260503025351 | 65 | 266 | 0.0 | 1.0 | 0.00 | 0.00 | 0.00 | 75 | 1009.3 |
| 20260503024859 | 65 | 249 | 0.0 | 4.0 | 0.00 | 0.00 | 0.00 | 75 | 1009.2 |
| 20260503024348 | 66 | 186 | 0.0 | 4.0 | 0.00 | 0.00 | 0.00 | 74 | 1009.1 |
| 20260503023852 | 66 | 260 | 0.0 | 3.0 | 0.00 | 0.00 | 0.00 | 73 | 1009.0 |
| 20260503023359 | 67 | 252 | 0.0 | 3.0 | 0.00 | 0.00 | 0.00 | 73 | 1009.0 |
| 20260503022847 | 67 | 139 | 1.0 | 3.0 | 0.00 | 0.00 | 0.00 | 72 | 1008.9 |
| 20260503022357 | 68 | 201 | 0.0 | 2.0 | 0.00 | 0.00 | 0.00 | 72 | 1008.8 |
| 20260503021848 | 68 | 240 | 0.0 | 2.0 | 0.00 | 0.00 | 0.00 | 71 | 1008.7 |
| 20260503021357 | 69 | 248 | 0.0 | 1.0 | 0.00 | 0.00 | 0.00 | 70 | 1008.7 |
| 20260503020846 | 69 | 176 | 0.0 | 4.0 | 0.00 | 0.00 | 0.00 | 70 | 1008.7 |
| 20260503020354 | 69 | 231 | 1.0 | 4.0 | 0.00 | 0.00 | 0.00 | 69 | 1008.7 |
| 20260503015903 | 70 | 233 | 0.0 | 4.0 | 0.00 | 0.00 | 0.00 | 69 | 1008.7 |
| 20260503015410 | 70 | 173 | 1.0 | 4.0 | 0.00 | 0.00 | 0.00 | 68 | 1008.7 |
| 20260503014855 | 70 | 218 | 1.0 | 3.0 | 0.00 | 0.00 | 0.00 | 67 | 1008.6 |
| 20260503014402 | 71 | 254 | 0.0 | 3.0 | 0.00 | 0.00 | 0.00 | 67 | 1008.7 |
| 20260503013851 | 71 | 157 | 0.0 | 3.0 | 0.00 | 0.00 | 0.00 | 67 | 1008.7 |
| 20260503013418 | 71 | 167 | 1.0 | 3.0 | 0.00 | 0.00 | 0.00 | 66 | 1008.6 |
| 20260503012844 | 72 | 165 | 1.0 | 3.0 | 0.00 | 0.00 | 0.00 | 66 | 1008.6 |
| 20260503012353 | 72 | 207 | 1.0 | 4.0 | 0.00 | 0.00 | 0.00 | 65 | 1008.6 |
| 20260503011847 | 72 | 233 | 1.0 | 4.0 | 0.00 | 0.00 | 0.00 | 65 | 1008.7 |
| 20260503011356 | 73 | 235 | 1.0 | 3.0 | 0.00 | 0.00 | 0.00 | 64 | 1008.6 |
| 20260503010902 | 73 | 229 | 2.0 | 4.0 | 0.00 | 0.00 | 0.00 | 63 | 1008.7 |
| 20260503010410 | 74 | 153 | 1.0 | 4.0 | 0.00 | 0.00 | 0.00 | 63 | 1008.7 |
| 20260503005400 | 74 | 153 | 2.0 | 5.0 | 0.00 | 0.00 | 0.00 | 63 | 1008.7 |
| 20260503004847 | 74 | 139 | 2.0 | 5.0 | 0.00 | 0.00 | 0.00 | 63 | 1008.8 |
| 20260503004356 | 74 | 157 | 1.0 | 4.0 | 0.00 | 0.00 | 0.00 | 63 | 1008.7 |
| 20260503003902 | 74 | 191 | 1.0 | 4.0 | 0.00 | 0.00 | 0.00 | 63 | 1008.7 |
| 20260503003350 | 74 | 261 | 1.0 | 5.0 | 0.00 | 0.00 | 0.00 | 63 | 1008.7 |
| 20260503002915 | 74 | 105 | 2.0 | 5.0 | 0.00 | 0.00 | 0.00 | 63 | 1008.7 |
| 20260503002358 | 74 | 169 | 1.0 | 5.0 | 0.00 | 0.00 | 0.00 | 63 | 1008.7 |
| 20260503001849 | 74 | 236 | 2.0 | 4.0 | 0.00 | 0.00 | 0.00 | 63 | 1008.8 |